Meteo Giornale » Osservazioni meteo Italia » Palermo-Punta Raisi

ore: 12:50 - Osservazioni Meteo Palermo-Punta Raisi
Lat. 38° 11' N Lon. 13° 6' E Alt. 21 metri s.l.m.

poco_nuvoloso Europe/Rome

30 °C

Poco Nuvoloso

Temp. 24 Ore

25 °C

31 °C

Nord/Nord-Est

24 Km/h

Dew point 25 °C

Umidità 74 %

Visibilità  10 Km

Il sole sorge alle ore 06:14

Il sole tramonta alle ore 20:11

Data e Ora Cielo e Fenomeni T °C DP °C Um. % Pres. hPa Vis. km Vento km/h
Oggi h: 12:50 poco_nuvoloso Poco Nuvoloso 30 25 74 1013 10 N/NE 24
Oggi h: 12:20 poco_nuvoloso Poco Nuvoloso 30 25 74 1013 10 N/NE 24
Oggi h: 11:50 sereno Sereno 30 25 74 1013 10 N/NE 22.2
Oggi h: 11:20 sereno Sereno 30 24 70 1013 10 N/NE 22.2
Oggi h: 10:50 sereno Sereno 30 25 74 1013 10 N/NE 22.2
Oggi h: 10:20 poco_nuvoloso Poco Nuvoloso 29 24 74 1012 10 N/NE 18.5
Oggi h: 09:50 poco_nuvoloso Poco Nuvoloso 29 24 74 1012 10 N/NE 18.5
Oggi h: 09:20 poco_nuvoloso Poco Nuvoloso 29 23 70 1012 10 NE 18.5
Oggi h: 08:50 poco_nuvoloso Poco Nuvoloso 29 24 74 1012 10 NE 18.5
Oggi h: 08:20 poco_nuvoloso Poco Nuvoloso 29 24 74 1012 10 NE 18.5
Oggi h: 07:50 poco_nuvoloso Poco Nuvoloso 29 24 74 1012 10 E/NE 14.8
Oggi h: 07:20 poco_nuvoloso Poco Nuvoloso 28 24 78 1012 10 E/NE 14.8
Oggi h: 06:50 sereno Sereno 27 23 78 1012 10 NE 13
Oggi h: 06:20 sereno Sereno 27 23 78 1011 10 NE 13
Oggi h: 05:50 sereno Sereno 27 22 74 1011 10 NE 11.1
Oggi h: 04:50 sereno Sereno 26 21 73 1011 10 N 1.8
Oggi h: 03:50 sereno Sereno 25 20 73 1011 10 N 3.7
Oggi h: 03:20 sereno Sereno 27 20 65 1011 10 N 3.7
Oggi h: 02:50 sereno Sereno 27 20 65 1011 10 SE 7.4
Oggi h: 02:20 sereno Sereno 27 21 69 1011 10 S/SE 7.4
Oggi h: 01:50 sereno Sereno 27 21 69 1012 10 S/SE 9.3
Oggi h: 01:20 sereno Sereno 28 23 74 1012 10 SO 11.1
Oggi h: 00:50 sereno Sereno 29 20 58 1012 10 E 11.1
Oggi h: 00:20 sereno Sereno 29 21 62 1012 10 E 16.7
Ieri h: 23:50 sereno Sereno 29 22 66 1012 10 E/NE 20.3
Ieri h: 23:20 sereno Sereno 29 22 66 1012 10 NE 14.8
Ieri h: 22:50 sereno Sereno 29 23 70 1012 10 NE 14.8
Ieri h: 22:20 sereno Sereno 29 23 70 1012 10 NE 14.8
Ieri h: 21:50 sereno Sereno 29 23 70 1012 10 E/NE 14.8
Ieri h: 21:20 sereno Sereno 29 23 70 1012 10 E/NE 16.7
Ieri h: 20:50 sereno Sereno 29 22 66 1012 10 NE 13
Ieri h: 20:20 sereno Sereno 29 23 70 1011 10 N/NE 14.8
Ieri h: 19:50 sereno Sereno 30 23 66 1011 10 N/NE 14.8
Ieri h: 19:20 sereno Sereno 30 23 66 1011 10 N/NE 14.8
Ieri h: 18:50 sereno Sereno 30 23 66 1011 10 N 11.1
Ieri h: 18:20 sereno Sereno 30 23 66 1010 10 N 13
Ieri h: 17:50 sereno Sereno 30 23 66 1011 10 N 13
Ieri h: 17:20 sereno Sereno 30 23 66 1011 10 N 11.1
Ieri h: 16:50 sereno Sereno 31 23 62 1011 10 N 13
Ieri h: 16:20 sereno Sereno 31 24 66 1011 10 N 13
Ieri h: 15:50 sereno Sereno 30 24 70 1011 10 N 13
Ieri h: 15:20 sereno Sereno 30 23 66 1011 10 N/NE 14.8
Ieri h: 14:50 sereno Sereno 30 24 70 1011 10 N 16.7
Ieri h: 14:20 sereno Sereno 30 24 70 1011 10 N 20.3
Ieri h: 13:50 sereno Sereno 30 24 70 1012 10 N 22.2